Regional Weather Roundup
Issued by NWS Northern Indiana

Home | Current Version | Previous Version | Graphics & Text | Print | Product List | Glossary On
Versions: 1 2 3 4 5 6 7 8 9 10 11 12 13 14 15 16 17 18 19 20 21 22 23 24 25 26 27 28 29 30 31 32 33 34 35 36 37 38 39 40 41 42 43 44 45 46 47 48 49 50
000
ASUS43 KIWX 050110
RWRIWX

KIWX WEATHER ROUNDUP
NATIONAL WEATHER SERVICE NORTHERN INDIANA
800 PM EST WED MAR 04 2015

NOTE: "FAIR" INDICATES FEW OR NO CLOUDS BELOW 12,000 FEET WITH NO
SIGNIFICANT WEATHER AND/OR OBSTRUCTIONS TO VISIBILITY.

* THESE STATIONS ARE NOT UNDER NWS QUALITY CONTROL. THEY ALSO MAY NOT
  REPORT WEATHER SUCH AS PRECIPITATION OR FOG.

INZ001>027-050200-
NORTHERN INDIANA

CITY           SKY/WX    TMP DP  RH WIND       PRES   REMARKS
GARY*          MOCLDY    21  -4  33 NW14      30.24R WCI   8
VALPARAISO     CLOUDY    19   2  47 N3        30.21R
MICHIGAN CITY* CLOUDY    21   0  39 NW5       30.23S WCI  15
LAPORTE*       CLOUDY    21   4  47 NW7       30.22S WCI  12
KNOX*            N/A     19  -6  32 NW8       30.23R WCI   9
SOUTH BEND     CLOUDY    20   5  52 NW8       30.23R WCI  10
GOSHEN         CLOUDY    18   7  62 NW14      30.20R WCI   4
MONTICELLO*    CLOUDY    18  11  74 NW12      30.22S WCI   6
LOGANSPORT*    CLOUDY    19  10  68 N14       30.21F WCI   6
ROCHESTER*     CLOUDY    23   9  54 NW13      30.21R WCI  11
WARSAW*        CLOUDY    19   9  63 NW9       30.21R WCI   9
ANGOLA*        CLEAR     18   7  62 NW10      30.15R WCI   6
FORT WAYNE     CLOUDY    20   9  62 NW14      30.18R WCI   7
HUNTINGTON*    CLOUDY    19   4  52 NW9G16    30.18R WCI   9
PERU/GRISSOM   CLOUDY    20   7  57 N15       30.18R WCI   6
MARION*        CLOUDY    21  10  63 N13       30.18S WCI   8

$$
INZ028>050-050200-
CENTRAL INDIANA

CITY           SKY/WX    TMP DP  RH WIND       PRES   REMARKS
LAFAYETTE      CLOUDY    18   8  65 NW12      30.23S WCI   5
KOKOMO*          N/A    N/A N/A N/A MISG        N/A
MUNCIE*        CLOUDY    23  13  65 N17       30.15R WCI   9
INDIANAPOLIS   CLOUDY    20  12  71 NW15      30.19R WCI   6

$$
MIZ043>046-050>051-056>058-064>065-071>073-077>080-050200-
SOUTHWEST LOWER MICHIGAN

CITY           SKY/WX    TMP DP  RH WIND       PRES   REMARKS
BATTLE CREEK   MOCLDY    18   3  52 NW13      30.17R WCI   5
BENTON HARBOR  MOCLDY    18   4  54 NW7       30.22R WCI   9
COLDWATER*     CLOUDY    17   5  57 NW9       30.17R WCI   6
HILLSDALE*     CLOUDY    18   4  56 NW14G22   30.14R WCI   4
HOLLAND        CLOUDY    18   3  52 W8G18     30.21R WCI   8
GRAND RAPIDS   MOCLDY    15  -2  46 NW13      30.19R WCI   1
KALAMAZOO      MOCLDY    18   3  52 NW12      30.18R WCI   5
STURGIS*       CLOUDY    18   7  62 NW8G17    30.18R WCI   7
THREE RIVERS*  FAIR      18   5  56 NW9       30.20R WCI   7

$$
OHZ001>008-015>018-024>025-050200-
NORTHWEST OHIO

CITY           SKY/WX    TMP DP  RH WIND       PRES   REMARKS
WAUSEON*       FAIR      21   9  58 NW18      30.14R WCI   6
DEFIANCE       CLOUDY    21   7  54 NW20G28   30.18R WCI   6
FINDLAY        CLOUDY    25  13  60 NW16G25   30.12R WCI  12
TOLEDO EXPRESS CLOUDY    22   8  55 NW13      30.13R WCI  10
TOLEDO METCALF CLOUDY    25  11  55 NW17      30.13R WCI  12
LIMA           CLOUDY    25  15  66 NW18      30.12R WCI  11

$$
AND FOR LAKE MICHIGAN COASTAL AND OPEN LAKE BUOY OBSERVATIONS

STATION/POSITION TEMP    WIND        PRES    VSBY  WAVE
                 AIR SEA DIR/SP/G                  HT/PER
                 (F)     (DEG/KT/KT) (MB)    (MI)  (FT/S)
CALUMET HARBOR    19     290/  8/ 14 1022.4F
MICHIGAN CITY     19     290/  9/ 11   N/A
SAINT JOSEPH      20     300/ 10/ 15 1023.7S

$$
&&


USA.gov is the U.S. government's official web portal to all federal, state and local government web resources and services.